Regional Weather Roundup
Issued by NWS

Home | Current Version | Previous Version | Text Only | Print | Product List | Glossary On
Versions: 1 2 3 4 5 6 7 8 9 10 11 12 13 14 15 16 17 18 19 20 21 22 23 24 25 26 27 28 29 30 31 32 33 34 35 36 37 38 39 40 41 42 43 44 45 46 47 48 49 50
000
ASUS43 KOAX 240310
RWRNE

WEATHER ROUNDUP FOR NEBRASKA
NATIONAL WEATHER SERVICE OMAHA NE
1000 PM CDT SAT SEP 23 2017

NOTES: SATELLITE DATA IS BEING USED TO AUGMENT CLOUD COVER ABOVE
       12000 FEET.
       "FAIR" INDICATES FEW OR NO CLOUDS BELOW 12,000 FEET WITH NO
       SIGNIFICANT WEATHER AND/OR OBSTRUCTIONS TO VISIBILITY.


NEZ001>004-019>022-054>056-240400-
NEBRASKA PANHANDLE

CITY           SKY/WX    TMP DP  RH WIND       PRES   REMARKS
SCOTTSBLUFF    LGT RAIN  46  43  89 N5        29.99F
ALLIANCE       LGT RAIN  44  43  96 N9        29.98F FOG
CHADRON        LGT RAIN  46  44  93 N8        30.03S
GORDON         DRIZZLE   46  45  95 NW7       29.99R
KIMBALL        DRIZZLE   44  44 100 NE7       29.98S
SIDNEY         RAIN      45  44  97 N13       29.97F FOG
$$

NEZ057>060-069>072-079>082-240400-
SOUTHWEST NEBRASKA

CITY           SKY/WX    TMP DP  RH WIND       PRES   REMARKS
NORTH PLATTE   TSTM      53  51  93 VRB7      29.94R FOG
IMPERIAL       LGT RAIN  53  52  96 NE12      29.89F
LEXINGTON      CLOUDY    58  56  92 E6        29.88F
MCCOOK         HVY RAIN  58  58 100 N8        29.90F VSB 3/4
OGALLALA       LGT RAIN  53  51  94 N6        29.93S
$$

NEZ005>010-023>029-035>040-094-240400-
NORTH CENTRAL NEBRASKA

CITY           SKY/WX    TMP DP  RH WIND       PRES   REMARKS
VALENTINE      LGT RAIN  51  49  92 N8        29.93F
AINSWORTH      LGT RAIN  51  51 100 N10G18    29.93F
BROKEN BOW     LGT RAIN  56  56 100 CALM      29.89R
O`NEILL        CLOUDY    55  55 100 NE7       29.90F
ORD            MOCLDY    56  54  93 NE3       29.88F
THEDFORD       LGT RAIN  51  50  97 N6        29.95S
$$

NEZ041-046>049-061>064-073>077-083>087-240400-
SOUTH CENTRAL NEBRASKA

CITY           SKY/WX    TMP DP  RH WIND       PRES   REMARKS
GRAND ISLAND   MOCLDY    61  58  90 N6        29.89S
AURORA         CLOUDY    75  60  59 SE9       29.88S
HASTINGS       CLOUDY    66  58  75 N3        29.88S
HEBRON         PTCLDY    78  62  56 SE12      29.89S
HOLDREGE       CLOUDY    60  59  96 E9        29.87F
KEARNEY        MOCLDY    60  58  92 NE13      29.88F
YORK           CLOUDY    77  63  61 S12       29.88S
$$

NEZ011>018-030>034-042>045-240400-
NORTHEAST NEBRASKA

CITY           SKY/WX    TMP DP  RH WIND       PRES   REMARKS
NORFOLK        CLOUDY    59  57  93 N8        29.90F
ALBION         CLOUDY    59  56  91 NE3       29.91S
BLAIR          CLEAR     80  64  56 S13       29.91S
COLUMBUS       CLOUDY    76  63  64 SE7       29.88S
FREMONT        CLOUDY    80  62  55 SE13G21   29.89S
TEKAMAH        CLEAR     74  63  68 SE9       29.88S
WAYNE          CLOUDY    64  61  91 NW9       29.91R
$$

NEZ050>053-065>068-078-088>093-240400-
SOUTHEAST NEBRASKA

CITY           SKY/WX    TMP DP  RH WIND       PRES   REMARKS
LINCOLN        PTCLDY    80  63  55 SE16      29.90R
OMAHA EPPLEY   MOCLDY    79  65  62 SE10      29.91R
BEATRICE       PTCLDY    80  64  57 SE13G18   29.91S
FALLS CITY     CLEAR     74  66  76 S7        29.93R
NEBRASKA CITY  PTCLDY    76  66  70 S9        29.94S
PLATTSMOUTH    CLOUDY    78  66  68 SE9       29.93S
$$

NEZ044-045-051>053-067-240400-
OMAHA AREA

CITY           SKY/WX    TMP DP  RH WIND       PRES   REMARKS
OMAHA EPPLEY   MOCLDY    79  65  62 SE10      29.91R
BLAIR          CLEAR     80  64  56 S13       29.91S
FREMONT        CLOUDY    80  62  55 SE13G21   29.89S
MILLARD        CLOUDY    80  65  61 SE9       29.91S
OFFUTT AFB     PTCLDY    73  65  74 E7        29.91R
PLATTSMOUTH    CLOUDY    78  66  68 SE9       29.93S
WAHOO          FAIR      78  62  59 SE10G16   29.89F
$$




USA.gov is the U.S. government's official web portal to all federal, state and local government web resources and services.